EHI
0 0 0 0 0 0 0 0 0 0 0 0 0 0 0 0 0 0 0 0 0 0 0 0 0 0 0 0 0 0 0 0 0 0 0 0 0 0
0 0 0 0 0 0 0 0 0 0 0 0 0 0 0 0 0 0 0 0 0 0 0 0 0 0 0 0 0 0 0 0 0 0 0 0 0 0
0 0 0 0 0 0 0 0 0 0 0 0 0 0 0 0 0 0 0 0 0 0 0 0 0 0 0 0 0 0 0 0 0 0 0 0 0 0
0 0 0 0 0 0 0 0 0 0 0 0 0 0 0 0 0 0 0 0 0 0 0 0 0 0 0 0 0 0 0 0 0 0 0 0 0 0
0 0 0 0 0 0 0 0 0 0 0 0 0 0 0 0 0 0 0 0 0 0 0 0 0 0 0 0 0 0 0 0 0 0 0 0 0 0
0 0 0 0 0 0 0 0 0 0 0 0 0 0 0 0 0 0 0 0 0 0 0 0 0 0 0 0 0 0 0 0 0 0 0 0 0 0
0 0 0 0 0 0 0 0 0 0 0 0 0 0 0 0 0 0 0 0 0 0 0 0 0 0 0 0 0 0 0 0 0 0 0 0 0 0
0 0 0 0 0 0 0 0 0 0 0 0 0 0 0 0 0 0 0 0 0 0 0 0 0 0 0 0 0 0 0 0 0 0 0 0 0 0
0 0 0 0 0 0 0 0 0 0 0 0 0 0 0 0 0 0 0 0 0 0 0 0 0 0 0 0 0 0 0 0 0 0 0 0 0 0
0 0 0 0 0 0 0 0 0 0 0 0 0 0 0 0 0 0 0 0 0 0 0 0 0 0 0 0 0 0 0 0 0 0 0 0 0 0
0 0 0 0 0 0 0 0 0 0 0 0 0 0 0 0 0 0 0 0 0 0 0 0 0 0 0 0 0 0 0 0 0 0 0 0 0 0
0 0 0 0 0 0 0 0 0 0 0 0 0 0 0 0 0 0 0 0 0 0 0 0 0 0 0 0 0 0 0 0 0 0 0 0 0 0
0 0 0 0 0 0 0 0 0 0 0 0 0 0 0 0 0 0 0 0 0 0 0 0 0 0 0 0 0 0 0 0 0 0 0 0 0 0
0 0 0 0 0 0 0 0 0 0 0 0 0 0 0 0 0 0 0 0 0 0 0 0 0 0 0 0 0 0 0 0 0 0 0 0 0 0
0 0 0 0 0 0 0 0 0 0 0 0 0 0 0 0 0 0 0 0 0 0 0 0 0 0 0 0 0 0 0 0 0 0 0 0 0 0
0 0 0 0 0 0 0 0 0 0 0 0 0 0 0 0 0 0 0 0 0 0 0 0 0 0 0 0 0 0 0 0 0 0 0 0 0 0
0 0 0 0 0 0 0 0 0 0 0 0 0 0 0 0 0 0 0 0 0 0 0 0 0 0 0 0 0 0 0 0 0 0 0 0 0 0
0 0 0 0 0 0 0 0 0 0 0 0 0 0 0 0 0 0 0 0 0 0 0 0 0 0 0 0 0 0 0 0 0 0 0 0 0 0
0 0 0 0 0 0 0 0 0 0 0 0 0 0 0 0 0 0 0 0 0 0 0 0 0 0 0 0 0 0 0 0 0 0 0 0 0 0
0 0 0 0 0 0 0 0 0 0 0 0 0 0 0 0 0 0 0 0 0 0 0 0 0 0 0 0 0 0 0 0 0 0 0 0 0 0
0 0 0 0 0 0 0 0 0 0 0 0 0 0 0 0 0 0 0 0 0 0 0 0 0 0 0 0 0 0 0 0 0 0 0 0 0 0
0 0 0 0 0 0 0 0 0 0 0 0 0 0 0 0 0 0 0 0 0 0 0 0 0 0 0 0 0 0 0 0 0 0 0 0 0 0
0 0 0 0 0 0 0 0 0 0 0 0 0 0 0 0 0 0 0 0 0 0 0 0 0 0 0 0 0 0 0 0 0 0 0 0 0 0
Wind_Speed
1 0 1 1 1 2 3 5 6 5 3 3 2 2 3 4 6 5 5 10 10 10 9 9 9 9 9 8 8 7 7 6 6 5 5 5 5 5
2 1 1 1 1 1 2 2 3 5 4 3 2 4 5 6 7 5 5 9 8 8 8 8 7 7 7 7 6 6 5 5 4 3 3 3 4 4
3 2 2 2 1 2 2 3 3 4 7 5 4 5 6 7 6 4 4 3 4 7 7 6 5 5 5 4 4 4 3 3 2 1 1 1 2 3
4 3 3 2 2 2 3 4 4 5 9 10 5 4 5 6 6 5 3 3 3 4 5 5 4 4 4 4 3 3 3 2 2 1 1 2 3 4
4 4 3 3 3 3 4 5 5 7 7 9 7 4 4 4 5 4 3 2 2 3 4 4 4 4 4 4 4 4 3 3 3 3 3 3 4 5
5 5 4 4 4 5 5 7 8 8 8 8 7 5 4 4 4 3 2 1 1 2 3 3 4 5 5 6 6 5 5 5 5 5 5 5 5 6
6 6 6 7 7 6 6 7 8 8 8 8 7 5 4 4 3 3 3 1 0 1 1 1 1 2 3 5 7 8 8 7 7 7 7 7 7 7
7 6 7 8 10 11 11 10 10 10 9 7 6 6 4 4 3 3 3 2 1 1 2 2 2 3 4 4 7 9 10 10 9 9 9 8 8 8
7 6 7 7 8 8 12 13 11 11 10 8 8 6 5 5 5 4 3 3 2 2 2 1 1 3 4 5 10 11 11 11 10 10 10 9 9 9
8 7 7 7 7 8 10 10 8 7 7 6 7 5 5 4 4 5 4 2 1 1 2 1 1 2 3 3 8 11 11 11 11 11 11 10 10 10
8 8 8 8 10 12 11 10 9 7 9 10 8 7 7 6 5 4 3 3 2 1 0 2 1 1 2 3 4 7 9 10 11 11 12 12 11 9
6 8 11 10 11 11 9 9 8 5 5 6 6 5 4 3 4 4 4 3 2 0 1 1 0 1 2 3 2 2 3 7 10 11 12 12 11 5
5 5 5 10 11 11 8 6 6 5 4 5 4 3 3 2 1 1 3 4 3 2 3 2 1 1 1 3 4 3 2 3 3 5 9 12 11 8
4 3 4 9 10 9 6 6 8 6 4 4 3 2 2 1 1 1 1 2 3 4 4 3 2 3 2 1 3 4 3 3 3 3 4 6 8 10
3 4 6 8 8 6 7 8 6 4 4 3 2 0 1 1 1 1 2 2 2 2 2 3 3 3 3 3 3 3 3 4 3 3 4 4 4 3
4 5 7 8 7 5 6 5 4 3 3 2 1 1 1 2 2 1 1 2 2 4 4 1 3 4 3 3 3 3 3 3 3 3 3 4 4 4
3 3 4 4 4 4 3 3 3 3 3 2 2 2 2 2 2 1 1 1 1 2 4 4 2 2 5 4 3 4 4 4 4 3 2 3 5 5
4 3 2 2 2 2 2 2 2 2 2 2 2 2 1 1 2 2 1 1 1 2 2 3 3 3 4 3 5 4 3 4 4 3 3 3 5 6
3 2 1 1 1 1 1 1 1 1 1 1 2 1 1 1 1 1 1 1 1 2 2 2 1 0 1 4 7 4 4 4 3 3 4 4 5 7
1 1 0 0 1 1 1 1 1 1 1 1 1 1 1 1 1 1 1 1 2 2 3 3 2 2 4 4 4 5 6 5 4 4 5 4 5 8
1 0 0 1 1 1 1 1 1 0 0 1 1 1 1 1 1 1 2 3 2 2 3 4 5 5 2 1 3 5 6 7 8 6 4 4 4 4
1 0 0 1 1 1 1 1 1 0 0 1 1 1 1 1 1 2 2 2 2 3 3 4 5 3 0 2 4 5 6 7 7 9 11 10 5 5
1 1 1 1 1 1 2 2 2 1 1 1 0 0 1 1 1 1 2 2 3 3 3 4 3 2 2 3 4 4 6 7 5 5 6 10 14 17
Wind_Direction
332 174 155 175 155 155 150 156 154 155 154 144 125 108 106 103 117 114 113 115 115 114 114 113 112 112 113 111 109 106 102 100 99 95 86 71 58 45
22 49 65 99 122 130 140 141 141 143 141 140 129 130 122 118 120 109 110 120 121 121 120 120 121 121 119 118 120 120 118 116 110 105 91 69 47 30
33 49 56 76 110 122 131 129 121 120 123 112 106 117 118 121 119 109 114 117 127 133 132 133 136 135 134 138 143 143 145 145 138 132 108 40 7 359
34 43 45 72 92 106 123 125 124 121 127 128 121 120 117 127 126 126 131 137 130 144 152 153 155 161 169 177 182 186 189 187 195 228 256 289 309 319
34 43 48 78 90 95 108 117 119 117 114 125 124 120 112 125 118 122 127 109 152 165 177 190 196 198 205 210 216 217 218 225 239 251 264 278 290 299
39 46 52 77 100 109 109 115 116 115 116 121 122 122 116 116 119 124 117 117 170 176 190 196 206 220 227 230 233 232 234 240 247 257 266 274 283 290
45 49 60 76 87 105 115 120 121 119 120 120 122 118 120 128 143 149 140 128 243 197 180 222 213 238 245 243 242 241 241 244 248 254 262 269 276 283
47 48 59 62 73 86 101 112 123 128 129 126 127 132 139 144 136 135 130 126 214 229 159 240 197 238 243 235 241 243 244 246 249 254 259 264 271 277
47 50 61 61 69 82 84 85 88 104 119 128 133 141 146 153 142 134 142 152 194 203 138 244 242 248 253 244 241 242 245 248 252 255 257 261 265 271
47 53 65 59 72 87 88 82 80 84 101 110 126 137 143 149 149 149 154 128 50 36 131 176 259 258 273 263 256 249 248 249 252 255 257 260 263 267
46 48 59 66 76 88 89 87 81 74 82 96 107 114 122 131 132 105 93 92 67 322 86 145 246 289 298 289 282 268 258 255 255 258 260 260 260 265
47 45 54 68 71 80 88 92 89 82 85 83 76 70 78 91 117 131 138 128 127 269 258 139 154 54 329 298 288 285 272 266 261 260 261 262 260 253
57 43 43 67 73 75 82 88 100 105 90 89 80 65 54 50 59 120 155 150 149 210 226 150 146 129 181 296 305 285 258 265 273 265 261 261 256 230
62 41 47 63 69 70 74 85 92 90 85 79 72 60 49 15 350 9 159 181 184 197 205 161 165 176 173 274 290 298 293 267 251 263 268 274 266 248
47 48 52 56 56 53 61 76 81 84 86 83 81 31 289 280 344 4 7 16 337 274 223 190 178 179 173 204 249 272 295 295 267 260 272 264 257 251
29 27 39 48 51 46 45 49 56 83 100 102 94 360 2 19 19 20 19 11 6 329 321 251 198 183 203 224 222 256 253 265 283 276 269 275 266 243
29 35 32 30 31 28 30 34 41 53 59 49 51 40 29 25 5 8 32 43 41 312 314 324 318 218 215 210 241 256 261 267 259 263 267 281 277 263
56 41 31 41 51 51 51 38 38 48 56 65 61 52 37 24 4 2 34 51 329 290 290 300 334 355 350 299 222 235 261 259 268 266 233 251 279 278
62 35 24 41 77 91 93 89 63 33 72 79 69 50 31 15 14 1 2 2 329 303 290 286 289 131 309 297 294 231 212 255 272 279 258 234 249 267
46 38 25 122 127 130 126 118 104 46 49 43 25 11 11 12 3 344 333 317 304 306 311 306 275 220 211 233 261 281 244 224 246 263 271 268 262 270
354 339 191 153 148 159 162 145 128 107 14 29 4 353 358 17 346 322 314 313 311 302 300 287 274 272 236 238 299 291 285 259 233 233 253 272 285 293
275 233 195 159 152 150 143 118 79 43 34 70 25 360 358 11 318 308 307 303 294 283 279 281 299 322 302 268 276 278 286 296 291 271 245 224 222 244
198 177 156 146 150 147 134 122 121 139 152 148 148 360 6 348 319 308 305 305 304 305 306 308 318 322 290 267 271 278 285 290 294 305 294 273 254 251